Ellsworth AFB, SD

7:12 AM MDT on May 25, 2018 (GMT -0600)
Ellsworth Air Force Base

Weather History for KRCA - March, 2013

Change the Weather History Date:

Saturday, March 23, 2013

  Actual Average Record
Temperature  
Mean Temperature 18 °F -  
Max Temperature 26 °F 46 °F 71 °F (2003)
Min Temperature 10 °F 26 °F 10 °F (2013)
Degree Days  
Heating Degree Days 47    
Moisture  
Dew Point 13 °F    
Average Humidity 75    
Maximum Humidity 80    
Minimum Humidity 63    
Precipitation  
Precipitation 0.00 in - - ()
Sea Level Pressure  
Sea Level Pressure 30.26 in    
Wind  
Wind Speed 17 mph (NNW)    
Max Wind Speed 23 mph    
Max Gust Speed 31 mph    
Visibility 6 miles    
Events Snow    
Averages and records for this station are not official NWS values.
T = Trace of Precipitation, MM = Missing Value Source: NWS Daily Summary

Daily Weather History Graph

Daily Weather History Graph

Search for Another Location

Airport or City:

Astronomy

Mar. 23, 2013 Rise Set
Actual Time 6:49 AM MDT 7:08 PM MDT
Civil Twilight 6:20 AM MDT 7:37 PM MDT
Nautical Twilight 5:46 AM MDT 8:11 PM MDT
Astronomical Twilight 5:11 AM MDT 8:47 PM MDT
Moon 3:31 PM MDT (3/23) 4:34 AM MDT (3/23)
Length of Visible Light 13h 17m
Length of Day
12h 19m
Waxing Gibbous, 85% of the Moon is Illuminated
Mar 23
Waxing Gibbous
Mar 27
Full
Apr 2
Last Quarter
Apr 10
New
Apr 18
First Quarter

Hourly Weather History & Observations

Time (MDT) Temp. Windchill Dew Point Humidity Pressure Visibility Wind Dir Wind Speed Gust Speed Precip Events Conditions
12:02 AM 21.2 °F 4.9 °F 15.8 °F 80% 30.17 in 1.2 mi NNW 23.0 mph 29.9 mph N/A   Overcast
12:06 AM 21.2 °F 4.9 °F 15.8 °F 80% 30.17 in 1.2 mi NNW 23.0 mph 29.9 mph N/A   Overcast
12:17 AM 19.4 °F 2.8 °F 14.0 °F 80% 30.17 in 1.5 mi NNW 21.9 mph - N/A   Overcast
12:24 AM 19.4 °F 3.2 °F 14.0 °F 80% 30.18 in 1.5 mi NNW 20.7 mph 27.6 mph N/A   Overcast
12:38 AM 19.4 °F 3.2 °F 14.0 °F 80% 30.18 in 1.5 mi NNW 20.7 mph 26.5 mph N/A   Light Freezing Rain
12:45 AM 19.4 °F 2.8 °F 14.0 °F 80% 30.18 in 1.5 mi NNW 21.9 mph 26.5 mph N/A   Light Freezing Rain
12:46 AM 19.4 °F 2.8 °F 14.0 °F 80% 30.18 in 1.5 mi NNW 21.9 mph - N/A   Light Freezing Rain
12:48 AM 19.4 °F 2.8 °F 14.0 °F 80% 30.18 in 1.2 mi NNW 21.9 mph - N/A   Overcast
12:55 AM 20.3 °F 4.8 °F 14.0 °F 77% 30.18 in 1.2 mi NNW 19.6 mph - 0.00 in   Overcast
12:59 AM 19.4 °F 3.2 °F 14.0 °F 80% 30.18 in 1.5 mi NNW 20.7 mph - N/A   Light Freezing Rain
1:09 AM 19.4 °F 3.6 °F 12.2 °F 74% 30.18 in 1.5 mi NNW 19.6 mph 26.5 mph N/A   Haze
1:55 AM 18.1 °F 2.4 °F 10.8 °F 73% 30.18 in 1.5 mi NNW 18.4 mph 25.3 mph 0.00 in   Haze
2:55 AM 16.7 °F 1.0 °F 9.7 °F 74% 30.20 in 1.5 mi NNW 17.3 mph - N/A   Haze
3:55 AM 16.0 °F -0.4 °F 9.1 °F 74% 30.20 in 1.5 mi NNW 18.4 mph - N/A   Haze
4:55 AM 15.8 °F 0.9 °F 9.9 °F 77% 30.22 in 1.5 mi NNW 15.0 mph - N/A   Haze
5:43 AM 15.8 °F 2.7 °F 10.4 °F 79% 30.23 in 1.2 mi NNW 11.5 mph - N/A   Haze
5:55 AM 16.2 °F 4.7 °F 9.3 °F 74% 30.23 in 1.2 mi North 9.2 mph - N/A   Haze
6:13 AM 15.8 °F 3.4 °F 8.6 °F 73% 30.23 in 1.0 mi NNW 10.4 mph - N/A   Haze
6:35 AM 14.0 °F 2.0 °F 8.6 °F 79% 30.24 in 0.8 mi NNW 9.2 mph - N/A   Haze
6:40 AM 14.0 °F 1.2 °F 8.6 °F 79% 30.24 in 0.5 mi NW 10.4 mph - N/A   Haze
6:43 AM 14.0 °F 2.0 °F 6.8 °F 73% 30.24 in 0.5 mi NW 9.2 mph - N/A   Haze
6:45 AM 14.0 °F 2.0 °F 6.8 °F 73% 30.24 in 0.5 mi NW 9.2 mph - N/A   Haze
6:55 AM 12.2 °F 2.9 °F 6.6 °F 78% 30.25 in 0.5 mi WNW 5.8 mph - N/A   Haze
7:06 AM 10.4 °F -1.5 °F 5.0 °F 79% 30.25 in 0.8 mi NW 8.1 mph - N/A   Haze
7:24 AM 17.6 °F 2.7 °F 10.4 °F 73% 30.23 in 0.8 mi NNW 16.1 mph - N/A   Haze
7:37 AM 17.6 °F 4.3 °F 10.4 °F 73% 30.25 in 1.0 mi NNW 12.7 mph - N/A   Haze
7:43 AM 17.6 °F 6.4 °F 8.6 °F 68% 30.25 in 1.0 mi NW 9.2 mph - N/A   Haze
7:55 AM 14.0 °F 6.5 °F 7.9 °F 77% 30.27 in 1.0 mi West 4.6 mph - N/A   Haze
7:57 AM 14.0 °F 6.5 °F 6.8 °F 73% 30.27 in 1.0 mi West 4.6 mph - N/A   Haze
7:59 AM 14.0 °F 5.1 °F 6.8 °F 73% 30.27 in 1.2 mi WNW 5.8 mph - N/A   Haze
8:01 AM 14.0 °F 5.1 °F 6.8 °F 73% 30.28 in 1.5 mi WNW 5.8 mph - N/A   Haze
8:02 AM 14.0 °F 3.9 °F 6.8 °F 73% 30.28 in 1.8 mi WNW 6.9 mph - N/A   Haze
8:03 AM 14.0 °F 3.9 °F 6.8 °F 73% 30.28 in 2.0 mi WNW 6.9 mph - N/A   Haze
8:04 AM 14.0 °F 3.9 °F 6.8 °F 73% 30.28 in 2.5 mi WNW 6.9 mph - N/A   Haze
8:05 AM 14.0 °F 3.9 °F 6.8 °F 73% 30.28 in 3.0 mi NW 6.9 mph - N/A   Haze
8:55 AM 19.6 °F 8.1 °F 11.1 °F 70% 30.27 in 10.0 mi NNW 10.4 mph - N/A   Clear
9:42 AM 19.4 °F 8.6 °F 12.2 °F 74% 30.29 in 10.0 mi North 9.2 mph - N/A   Mostly Cloudy
9:48 AM 21.2 °F 10.1 °F 14.0 °F 74% 30.29 in 10.0 mi NNW 10.4 mph - N/A   Mostly Cloudy
9:52 AM 21.2 °F 7.8 °F 14.0 °F 74% 30.29 in 10.0 mi North 15.0 mph - N/A   Mostly Cloudy
9:55 AM 21.4 °F 9.1 °F 14.0 °F 73% 30.28 in 10.0 mi NNW 12.7 mph - N/A   Overcast
9:59 AM 21.2 °F 7.3 °F 14.0 °F 74% 30.28 in 10.0 mi NNW 16.1 mph - N/A   Overcast
10:01 AM 21.2 °F 6.4 °F 14.0 °F 74% 30.28 in 7.0 mi NNW 18.4 mph 23.0 mph N/A   Overcast
10:09 AM 21.2 °F 4.9 °F 15.8 °F 80% 30.28 in 6.0 mi NNW 23.0 mph 27.6 mph N/A   Overcast
10:11 AM 21.2 °F 6.4 °F 15.8 °F 80% 30.28 in 9.0 mi NNW 18.4 mph 27.6 mph N/A   Overcast
10:16 AM 21.2 °F 6.4 °F 15.8 °F 80% 30.28 in 10.0 mi NNW 18.4 mph 27.6 mph N/A   Overcast
10:24 AM 21.2 °F 5.6 °F 15.8 °F 80% 30.28 in 10.0 mi NNW 20.7 mph - N/A   Overcast
10:25 AM 21.2 °F 5.2 °F 15.8 °F 80% 30.28 in 10.0 mi North 21.9 mph - N/A   Overcast
10:26 AM 21.2 °F 5.6 °F 15.8 °F 80% 30.28 in 10.0 mi North 20.7 mph - N/A   Overcast
10:27 AM 21.2 °F 6.4 °F 15.8 °F 80% 30.28 in 10.0 mi North 18.4 mph - N/A   Overcast
10:29 AM 21.2 °F 6.8 °F 15.8 °F 80% 30.28 in 10.0 mi NNW 17.3 mph - N/A   Mostly Cloudy
10:34 AM 23.0 °F 8.3 °F 15.8 °F 74% 30.28 in 10.0 mi North 19.6 mph - N/A   Mostly Cloudy
10:37 AM 21.2 °F 6.8 °F 15.8 °F 80% 30.29 in 10.0 mi NNW 17.3 mph - N/A   Mostly Cloudy
10:55 AM 22.6 °F 8.7 °F 15.4 °F 74% 30.30 in 10.0 mi North 17.3 mph 25.3 mph 0.00 in   Scattered Clouds
11:01 AM 23.0 °F 8.3 °F 15.8 °F 74% 30.30 in 8.0 mi NNW 19.6 mph 25.3 mph N/A   Light Freezing Rain
11:10 AM 23.0 °F 7.2 °F 15.8 °F 74% 30.30 in 10.0 mi NNW 23.0 mph - N/A   Partly Cloudy
11:21 AM 23.0 °F 8.3 °F 15.8 °F 74% 30.30 in 10.0 mi North 19.6 mph 25.3 mph N/A   Mostly Cloudy
11:22 AM 23.0 °F 8.0 °F 17.6 °F 80% 30.30 in 10.0 mi North 20.7 mph 25.3 mph N/A Snow Light Snow
11:23 AM 23.0 °F 8.3 °F 17.6 °F 80% 30.30 in 10.0 mi North 19.6 mph 25.3 mph N/A Snow Light Snow
11:30 AM 23.0 °F 8.7 °F 15.8 °F 74% 30.30 in 10.0 mi North 18.4 mph 24.2 mph N/A Snow Light Snow
11:33 AM 23.0 °F 8.7 °F 15.8 °F 74% 30.30 in 10.0 mi North 18.4 mph - N/A   Mostly Cloudy
11:42 AM 23.0 °F 9.2 °F 15.8 °F 74% 30.29 in 10.0 mi NNW 17.3 mph 24.2 mph N/A   Mostly Cloudy
11:46 AM 23.0 °F 9.2 °F 15.8 °F 74% 30.29 in 10.0 mi North 17.3 mph 25.3 mph N/A   Scattered Clouds
11:55 AM 23.4 °F 8.8 °F 15.6 °F 72% 30.28 in 10.0 mi North 19.6 mph 25.3 mph 0.00 in   Scattered Clouds
12:03 PM 23.0 °F 8.7 °F 15.8 °F 74% 30.29 in 10.0 mi North 18.4 mph 27.6 mph N/A   Mostly Cloudy
12:08 PM 23.0 °F 8.3 °F 15.8 °F 74% 30.29 in 10.0 mi North 19.6 mph 27.6 mph N/A   Mostly Cloudy
12:16 PM 23.0 °F 8.3 °F 15.8 °F 74% 30.29 in 10.0 mi North 19.6 mph 25.3 mph N/A   Scattered Clouds
12:35 PM 23.0 °F 8.7 °F 15.8 °F 74% 30.29 in 10.0 mi North 18.4 mph 26.5 mph N/A   Partly Cloudy
12:55 PM 23.9 °F 8.4 °F 15.1 °F 69% 30.27 in 10.0 mi North 23.0 mph - N/A   Clear
1:55 PM 25.3 °F 11.0 °F 16.0 °F 68% 30.27 in 10.0 mi North 20.7 mph 26.5 mph N/A   Clear
2:55 PM 25.7 °F 11.5 °F 15.6 °F 66% 30.27 in 10.0 mi North 20.7 mph 31.1 mph N/A   Clear
3:55 PM 26.2 °F 12.6 °F 15.3 °F 63% 30.27 in 10.0 mi North 19.6 mph 28.8 mph N/A   Clear
4:55 PM 25.5 °F 10.6 °F 15.3 °F 65% 30.27 in 10.0 mi North 23.0 mph 31.1 mph N/A   Clear
5:55 PM 24.3 °F 9.3 °F 14.0 °F 65% 30.29 in 10.0 mi North 21.9 mph 27.6 mph N/A   Clear
6:55 PM 22.6 °F 8.3 °F 12.9 °F 66% 30.31 in 10.0 mi North 18.4 mph - N/A   Clear
7:55 PM 20.3 °F 6.1 °F 12.0 °F 70% 30.32 in 10.0 mi North 16.1 mph 21.9 mph N/A   Clear
8:55 PM 19.0 °F 5.6 °F 11.7 °F 73% 30.33 in 10.0 mi North 13.8 mph - N/A   Clear
9:55 PM 18.0 °F 6.9 °F 11.5 °F 76% 30.35 in 10.0 mi North 9.2 mph - N/A   Clear
10:55 PM 17.1 °F 4.3 °F 10.9 °F 77% 30.35 in 10.0 mi North 11.5 mph - N/A   Clear
11:55 PM 16.5 °F 4.3 °F 10.6 °F 77% 30.33 in 10.0 mi North 10.4 mph - N/A   Clear